TimePST,TemperatureF,Dew PointF,Humidity,Sea Level PressureIn,VisibilityMPH,Wind Direction,Wind SpeedMPH,Gust SpeedMPH,PrecipitationIn,Events,Conditions,WindDirDegrees,DateUTC
12:01 AM,46.4,42.8,87,30.34,4.0,SE,8.1,-,N/A,,Overcast,140,2013-01-30 08:01:00
12:53 AM,46.0,43.0,89,30.32,10.0,SE,6.9,-,0.00,,Overcast,140,2013-01-30 08:53:00
1:53 AM,46.9,43.0,86,30.33,10.0,SSE,6.9,-,0.01,Rain,Light Rain,150,2013-01-30 09:53:00
2:53 AM,48.0,43.0,83,30.34,10.0,SSE,8.1,-,0.00,Rain,Light Rain,160,2013-01-30 10:53:00
3:53 AM,46.9,44.1,90,30.35,3.0,SSE,8.1,-,0.01,,Overcast,150,2013-01-30 11:53:00
4:53 AM,46.9,44.1,90,30.34,4.0,SE,10.4,-,N/A,,Overcast,140,2013-01-30 12:53:00
5:21 AM,46.4,44.6,93,30.34,3.0,SE,8.1,-,N/A,,Overcast,130,2013-01-30 13:21:00
5:53 AM,46.9,44.1,90,30.35,2.5,SE,10.4,-,N/A,,Overcast,140,2013-01-30 13:53:00
6:53 AM,46.9,45.0,93,30.35,2.5,SE,6.9,-,0.01,Rain,Light Rain,140,2013-01-30 14:53:00
7:53 AM,48.0,45.0,89,30.36,2.5,SSE,6.9,-,0.00,,Overcast,150,2013-01-30 15:53:00
8:53 AM,48.0,45.0,89,30.36,1.2,SE,6.9,-,N/A,,Overcast,140,2013-01-30 16:53:00
9:53 AM,48.0,46.0,93,30.38,1.5,SE,8.1,-,N/A,,Overcast,140,2013-01-30 17:53:00
10:53 AM,48.9,46.0,90,30.38,2.0,SSE,5.8,-,0.01,,Overcast,150,2013-01-30 18:53:00
11:28 AM,48.2,46.4,93,30.38,1.5,SSE,6.9,-,N/A,,Overcast,150,2013-01-30 19:28:00
11:53 AM,48.9,46.0,90,30.38,1.8,SSE,4.6,-,N/A,,Overcast,150,2013-01-30 19:53:00
12:53 PM,48.9,46.0,90,30.38,1.8,SSE,5.8,-,N/A,,Overcast,150,2013-01-30 20:53:00
1:53 PM,50.0,46.9,89,30.38,2.0,SSE,6.9,-,N/A,,Overcast,150,2013-01-30 21:53:00
2:53 PM,50.0,46.0,86,30.37,4.0,SSE,6.9,-,N/A,,Overcast,160,2013-01-30 22:53:00
3:53 PM,50.0,46.9,89,30.37,4.0,SSE,4.6,-,N/A,,Overcast,150,2013-01-30 23:53:00
4:00 PM,50.0,46.4,87,30.37,5.0,SE,4.6,-,N/A,,Overcast,140,2013-01-31 00:00:00
4:07 PM,50.0,46.4,87,30.37,5.0,SE,5.8,-,N/A,,Overcast,140,2013-01-31 00:07:00
4:53 PM,50.0,46.9,89,30.37,6.0,SSE,8.1,-,N/A,,Overcast,150,2013-01-31 00:53:00
5:33 PM,50.0,46.4,87,30.37,10.0,SE,4.6,-,N/A,,Overcast,140,2013-01-31 01:33:00
5:51 PM,50.0,46.4,87,30.37,10.0,SSE,4.6,-,N/A,,Overcast,150,2013-01-31 01:51:00
5:53 PM,50.0,46.0,86,30.37,5.0,SSE,5.8,-,N/A,,Overcast,150,2013-01-31 01:53:00
6:53 PM,50.0,46.0,86,30.36,10.0,SSE,4.6,-,N/A,,Overcast,160,2013-01-31 02:53:00
7:53 PM,48.9,46.0,90,30.36,10.0,South,6.9,-,N/A,,Overcast,170,2013-01-31 03:53:00
8:53 PM,48.9,46.0,90,30.36,4.0,Variable,5.8,-,N/A,,Overcast,0,2013-01-31 04:53:00
9:53 PM,48.9,46.0,90,30.37,7.0,SSW,4.6,-,N/A,,Overcast,200,2013-01-31 05:53:00
10:53 PM,48.0,45.0,89,30.37,5.0,SE,5.8,-,0.02,Rain,Light Rain,140,2013-01-31 06:53:00
11:53 PM,48.0,45.0,89,30.38,10.0,SSE,4.6,-,0.00,,Overcast,160,2013-01-31 07:53:00